Simultaneous Nadir Overpasses (SNOs) Predictions

Prediction of SNOs near US between AQUA and NPP Satellite Orbit:

Table of predicted SNOs near US for the next 10.0 days since TLE Epoch: 7/5/2019
Index Date (AQUA) Time (AQUA) AQUA Lat,Lon Date (NPP) Time (NPP) NPP Lat,Lon Distance(km) Time Diff (sec)
1 07/06/2019 18:16:52 49.96, -80.15 07/06/2019 18:10:42 49.66, -81.78 121.45 370
2 07/06/2019 19:55:45 49.96,-104.87 07/06/2019 19:52:10 49.55,-107.11 166.73 215
3 07/06/2019 21:30:56 36.72,-124.98 07/06/2019 21:29:50 36.23,-127.62 242.33 66
4 07/09/2019 09:23:39 22.90,-113.55 07/09/2019 09:16:07 23.01,-114.04 51.55 452
5 07/12/2019 06:30:15 46.34, -65.03 07/12/2019 06:30:45 46.76, -67.06 162.06 30
6 07/12/2019 08:08:08 49.90, -88.34 07/12/2019 08:11:12 50.38, -90.89 189.26 184
7 07/12/2019 09:47:01 49.91,-113.06 07/12/2019 09:52:39 50.55,-116.19 233.65 338
8 07/14/2019 19:06:15 49.95, -92.50 07/14/2019 19:01:28 49.62, -94.45 144.72 287
9 07/14/2019 20:45:08 49.95,-117.22 07/14/2019 20:42:56 49.51,-119.78 190.05 132




NCC Satellite Simultaneous Nadir Overpasses (SNOs) Prediction Service
